Location: Adair
(33.3137°N, 90.0906°W)
Time: 01:13:50
(UTC+00:00)

ISS - Pass Details

Date: 12 May 2026
Orbit: 415 x 423 km, 51.6° (Epoch: 10 June)

Event Time Altitude Azimuth Distance (km) Brightness Sun altitude
Rises 01:37:57 0° 257° (WSW) 2,344 0.8 -9.7°
Reaches altitude 10° 01:40:23 10° 274° (W) 1,483 0.2 -10.2°
Maximum altitude 01:42:58 21° 325° (NW) 1,001 -0.9 -10.6°
Drops below altitude 10° 01:45:34 10° 17° (NNE) 1,488 -0.8 -11.1°
Enters shadow 01:53:39 -15° 48° (NE) 4,537 1.4 -12.5°
